<?xml version="1.0" encoding="UTF-8" standalone="no" ?>
<gpx xmlns="http://www.topografix.com/GPX/1/1" xmlns:xsi="http://www.w3.org/2001/XMLSchema-instance" xsi:schemaLocation="http://www.topografix.com/GPX/1/1 http://www.topografix.com/GPX/1/1/gpx.xsd" version="1.1" creator="VisuGPX - https://www.visugpx.com">
  <metadata>
    <name>Gorges du Tarn et causses</name>
    <desc><![CDATA[Castelbouc ste enimie la Malène  cirque des baumes les vignes Pierre le Rozier v2]]></desc>
  </metadata>
  <wpt lat="44.21902" lon="3.26139">
    <ele>898.7</ele>
  </wpt>
  <wpt lat="44.19407" lon="3.22936">
    <ele>690.8</ele>
  </wpt>
  <wpt lat="44.19883" lon="3.22555">
    <ele>808.2</ele>
  </wpt>
  <wpt lat="44.19331" lon="3.21543">
    <ele>581.7</ele>
  </wpt>
  <wpt lat="44.31108" lon="3.24317">
    <ele>764.2</ele>
  </wpt>
  <wpt lat="44.31239" lon="3.24288">
    <ele>829.9</ele>
  </wpt>
  <wpt lat="44.21967" lon="3.23447">
    <ele>813.2</ele>
  </wpt>
  <wpt lat="44.22967" lon="3.23878">
    <ele>788.7</ele>
  </wpt>
  <wpt lat="44.23447" lon="3.23763">
    <ele>742.1</ele>
  </wpt>
  <wpt lat="44.23928" lon="3.23749">
    <ele>800.2</ele>
  </wpt>
  <wpt lat="44.24031" lon="3.24007">
    <ele>838.7</ele>
  </wpt>
  <wpt lat="44.2072" lon="3.2302">
    <ele>706.5</ele>
  </wpt>
  <wpt lat="44.2625" lon="3.25718">
    <ele>1000.2</ele>
  </wpt>
  <wpt lat="44.21488" lon="3.26076">
    <ele>877.2</ele>
  </wpt>
  <wpt lat="44.19391" lon="3.23061">
    <ele>716.4</ele>
  </wpt>
  <wpt lat="44.19383" lon="3.23308">
    <ele>751.6</ele>
  </wpt>
  <wpt lat="44.22024" lon="3.22956">
    <ele>704.5</ele>
  </wpt>
  <wpt lat="44.2073" lon="3.24151">
    <ele>868.3</ele>
  </wpt>
  <wpt lat="44.21593" lon="3.2603">
    <ele>884.5</ele>
  </wpt>
  <wpt lat="44.26696" lon="3.2432">
    <ele>907.7</ele>
  </wpt>
  <wpt lat="44.31854" lon="3.24998">
    <ele>867.2</ele>
  </wpt>
  <wpt lat="44.30307" lon="3.28486">
    <ele>867.7</ele>
  </wpt>
  <wpt lat="44.31187" lon="3.29871">
    <ele>833</ele>
  </wpt>
  <wpt lat="44.31364" lon="3.30549">
    <ele>773</ele>
  </wpt>
  <wpt lat="44.30264" lon="3.32484">
    <ele>457</ele>
  </wpt>
  <wpt lat="44.30054" lon="3.31711">
    <ele>448.5</ele>
  </wpt>
  <wpt lat="44.30144" lon="3.33522">
    <ele>846.7</ele>
  </wpt>
  <wpt lat="44.29928" lon="3.35262">
    <ele>805.8</ele>
  </wpt>
  <wpt lat="44.33585" lon="3.42023">
    <ele>1140</ele>
  </wpt>
  <wpt lat="44.33563" lon="3.38493">
    <ele>497.1</ele>
  </wpt>
  <wpt lat="44.22652" lon="3.25862">
    <ele>979.2</ele>
  </wpt>
  <wpt lat="44.19407" lon="3.22936">
    <ele>690.8</ele>
  </wpt>
  <wpt lat="44.19883" lon="3.22555">
    <ele>808.2</ele>
  </wpt>
  <wpt lat="44.19331" lon="3.21543">
    <ele>581.7</ele>
  </wpt>
  <wpt lat="44.31108" lon="3.24317">
    <ele>764.2</ele>
  </wpt>
  <wpt lat="44.31239" lon="3.24288">
    <ele>829.9</ele>
  </wpt>
  <wpt lat="44.21967" lon="3.23447">
    <ele>813.2</ele>
  </wpt>
  <wpt lat="44.22967" lon="3.23878">
    <ele>788.7</ele>
  </wpt>
  <wpt lat="44.23447" lon="3.23763">
    <ele>742.1</ele>
  </wpt>
  <wpt lat="44.23928" lon="3.23749">
    <ele>800.2</ele>
  </wpt>
  <wpt lat="44.24031" lon="3.24007">
    <ele>838.7</ele>
  </wpt>
  <wpt lat="44.2072" lon="3.2302">
    <ele>706.5</ele>
  </wpt>
  <wpt lat="44.26087" lon="3.25653">
    <ele>999.9</ele>
  </wpt>
  <wpt lat="44.21488" lon="3.26076">
    <ele>877.2</ele>
  </wpt>
  <wpt lat="44.19391" lon="3.23061">
    <ele>716.4</ele>
  </wpt>
  <wpt lat="44.19383" lon="3.23308">
    <ele>751.6</ele>
  </wpt>
  <wpt lat="44.22024" lon="3.22956">
    <ele>704.5</ele>
  </wpt>
  <wpt lat="44.21247" lon="3.24243">
    <ele>877.3</ele>
  </wpt>
  <wpt lat="44.21593" lon="3.2603">
    <ele>884.5</ele>
  </wpt>
  <wpt lat="44.26696" lon="3.2432">
    <ele>907.7</ele>
  </wpt>
  <wpt lat="44.31854" lon="3.24998">
    <ele>867.2</ele>
  </wpt>
  <wpt lat="44.30307" lon="3.28486">
    <ele>867.7</ele>
  </wpt>
  <wpt lat="44.31187" lon="3.29871">
    <ele>833</ele>
  </wpt>
  <wpt lat="44.31364" lon="3.30549">
    <ele>773</ele>
  </wpt>
  <wpt lat="44.2903" lon="3.29529">
    <ele>907</ele>
  </wpt>
  <wpt lat="44.30054" lon="3.31711">
    <ele>448.5</ele>
  </wpt>
  <wpt lat="44.30144" lon="3.33522">
    <ele>846.7</ele>
  </wpt>
  <wpt lat="44.29928" lon="3.35262">
    <ele>805.8</ele>
  </wpt>
  <wpt lat="44.33585" lon="3.42023">
    <ele>1140</ele>
  </wpt>
  <wpt lat="44.33563" lon="3.38493">
    <ele>497.1</ele>
  </wpt>
  <trk>
    <name><![CDATA[Gorges du Tarn et causses_2]]></name>
    <desc><![CDATA[La Malène-grotte sabatio par le cirque des baumes point sublime et les vignes ]]></desc>
    <extensions>
      <line xmlns="http://www.topografix.com/GPX/gpx_style/0/2">
        <color>ff00ff</color>
        <opacity>0.95</opacity>
        <width>2</width>
        <dasharray>4</dasharray>
      </line>
    </extensions>
    <trkseg>
      <trkpt lat="44.29997" lon="3.32096">
        <ele>468.1</ele>
        <time>2021-06-01T09:59:54.738Z</time>
      </trkpt>
      <trkpt lat="44.29997" lon="3.32096">
        <ele>468.1</ele>
        <time>2021-06-01T09:59:54.738Z</time>
      </trkpt>
      <trkpt lat="44.30134" lon="3.3202">
        <ele>453.6</ele>
        <time>2021-06-01T10:00:06.117Z</time>
      </trkpt>
      <trkpt lat="44.30116" lon="3.31838">
        <ele>457.5</ele>
        <time>2021-06-01T10:00:30.673Z</time>
      </trkpt>
      <trkpt lat="44.30097" lon="3.31645">
        <ele>452.1</ele>
        <time>2021-06-01T10:00:43.537Z</time>
      </trkpt>
      <trkpt lat="44.30089" lon="3.31558">
        <ele>454.9</ele>
        <time>2021-06-01T10:00:58.233Z</time>
      </trkpt>
      <trkpt lat="44.3006" lon="3.31493">
        <ele>457.3</ele>
        <time>2021-06-01T10:01:10.576Z</time>
      </trkpt>
      <trkpt lat="44.29939" lon="3.3128">
        <ele>449.9</ele>
        <time>2021-06-01T10:01:28.156Z</time>
      </trkpt>
      <trkpt lat="44.30106" lon="3.31197">
        <ele>468.2</ele>
        <time>2021-06-01T10:02:33.765Z</time>
      </trkpt>
      <trkpt lat="44.30226" lon="3.3114">
        <ele>484.1</ele>
        <time>2021-06-01T10:03:33.304Z</time>
      </trkpt>
      <trkpt lat="44.30549" lon="3.30868">
        <ele>552.8</ele>
        <time>2021-06-01T10:06:54.944Z</time>
      </trkpt>
      <trkpt lat="44.30673" lon="3.3085">
        <ele>622.5</ele>
        <time>2021-06-01T10:08:01.601Z</time>
      </trkpt>
      <trkpt lat="44.30691" lon="3.30769">
        <ele>622.3</ele>
        <time>2021-06-01T10:08:09.422Z</time>
      </trkpt>
      <trkpt lat="44.30743" lon="3.30715">
        <ele>645.4</ele>
        <time>2021-06-01T10:08:44.062Z</time>
      </trkpt>
      <trkpt lat="44.30829" lon="3.30749">
        <ele>694.7</ele>
        <time>2021-06-01T10:09:31.850Z</time>
      </trkpt>
      <trkpt lat="44.30853" lon="3.30709">
        <ele>697</ele>
        <time>2021-06-01T10:09:41.647Z</time>
      </trkpt>
      <trkpt lat="44.30952" lon="3.30603">
        <ele>724</ele>
        <time>2021-06-01T10:10:48.331Z</time>
      </trkpt>
      <trkpt lat="44.3107" lon="3.30388">
        <ele>750</ele>
        <time>2021-06-01T10:12:29.945Z</time>
      </trkpt>
      <trkpt lat="44.31378" lon="3.30384">
        <ele>782.9</ele>
        <time>2021-06-01T10:14:29.686Z</time>
      </trkpt>
      <trkpt lat="44.31703" lon="3.30455">
        <ele>809.8</ele>
        <time>2021-06-01T10:16:10.384Z</time>
      </trkpt>
      <trkpt lat="44.31559" lon="3.29769">
        <ele>812.6</ele>
        <time>2021-06-01T10:17:25.034Z</time>
      </trkpt>
      <trkpt lat="44.31206" lon="3.29268">
        <ele>825.5</ele>
        <time>2021-06-01T10:18:56.183Z</time>
      </trkpt>
      <trkpt lat="44.30836" lon="3.29107">
        <ele>839.2</ele>
        <time>2021-06-01T10:20:15.628Z</time>
      </trkpt>
      <trkpt lat="44.30321" lon="3.28686">
        <ele>868.3</ele>
        <time>2021-06-01T10:22:38.782Z</time>
      </trkpt>
      <trkpt lat="44.30293" lon="3.28446">
        <ele>862.7</ele>
        <time>2021-06-01T10:22:55.643Z</time>
      </trkpt>
      <trkpt lat="44.30723" lon="3.28708">
        <ele>861</ele>
        <time>2021-06-01T10:23:57.249Z</time>
      </trkpt>
      <trkpt lat="44.30967" lon="3.28186">
        <ele>865.4</ele>
        <time>2021-06-01T10:25:05.086Z</time>
      </trkpt>
      <trkpt lat="44.30945" lon="3.27903">
        <ele>857.1</ele>
        <time>2021-06-01T10:25:23.097Z</time>
      </trkpt>
      <trkpt lat="44.31228" lon="3.27423">
        <ele>857.1</ele>
        <time>2021-06-01T10:26:24.789Z</time>
      </trkpt>
      <trkpt lat="44.31201" lon="3.27031">
        <ele>842.4</ele>
        <time>2021-06-01T10:26:47.109Z</time>
      </trkpt>
      <trkpt lat="44.31366" lon="3.26464">
        <ele>842.4</ele>
        <time>2021-06-01T10:27:47.822Z</time>
      </trkpt>
      <trkpt lat="44.31641" lon="3.26392">
        <ele>865.9</ele>
        <time>2021-06-01T10:29:15.335Z</time>
      </trkpt>
      <trkpt lat="44.31702" lon="3.26186">
        <ele>888.3</ele>
        <time>2021-06-01T10:30:40.625Z</time>
      </trkpt>
      <trkpt lat="44.3154" lon="3.25782">
        <ele>906.9</ele>
        <time>2021-06-01T10:32:04.304Z</time>
      </trkpt>
      <trkpt lat="44.31625" lon="3.25249">
        <ele>870.7</ele>
        <time>2021-06-01T10:32:34.465Z</time>
      </trkpt>
      <trkpt lat="44.31696" lon="3.25038">
        <ele>859.5</ele>
        <time>2021-06-01T10:32:47.343Z</time>
      </trkpt>
      <trkpt lat="44.31836" lon="3.24983">
        <ele>864.9</ele>
        <time>2021-06-01T10:33:18.188Z</time>
      </trkpt>
      <trkpt lat="44.31674" lon="3.24797">
        <ele>842.6</ele>
        <time>2021-06-01T10:33:34.371Z</time>
      </trkpt>
      <trkpt lat="44.31559" lon="3.24482">
        <ele>848.6</ele>
        <time>2021-06-01T10:34:18.768Z</time>
      </trkpt>
      <trkpt lat="44.31378" lon="3.24314">
        <ele>840</ele>
        <time>2021-06-01T10:34:38.188Z</time>
      </trkpt>
      <trkpt lat="44.31229" lon="3.24453">
        <ele>752.7</ele>
        <time>2021-06-01T10:34:52.017Z</time>
      </trkpt>
      <trkpt lat="44.31066" lon="3.24262">
        <ele>765.9</ele>
        <time>2021-06-01T10:35:48.375Z</time>
      </trkpt>
      <trkpt lat="44.31124" lon="3.24204">
        <ele>800.7</ele>
        <time>2021-06-01T10:36:26.508Z</time>
      </trkpt>
      <trkpt lat="44.31285" lon="3.24283">
        <ele>837.7</ele>
        <time>2021-06-01T10:37:57.744Z</time>
      </trkpt>
      <trkpt lat="44.31174" lon="3.24188">
        <ele>827.5</ele>
        <time>2021-06-01T10:38:07.791Z</time>
      </trkpt>
      <trkpt lat="44.31188" lon="3.24112">
        <ele>824.8</ele>
        <time>2021-06-01T10:38:12.342Z</time>
      </trkpt>
      <trkpt lat="44.31142" lon="3.2347">
        <ele>874.6</ele>
        <time>2021-06-01T10:41:13.416Z</time>
      </trkpt>
      <trkpt lat="44.30829" lon="3.23057">
        <ele>900.9</ele>
        <time>2021-06-01T10:43:05.569Z</time>
      </trkpt>
      <trkpt lat="44.30567" lon="3.22938">
        <ele>888.2</ele>
        <time>2021-06-01T10:43:28.724Z</time>
      </trkpt>
      <trkpt lat="44.30082" lon="3.23019">
        <ele>925.7</ele>
        <time>2021-06-01T10:45:52.306Z</time>
      </trkpt>
      <trkpt lat="44.2971" lon="3.22791">
        <ele>947.3</ele>
        <time>2021-06-01T10:47:32.693Z</time>
      </trkpt>
      <trkpt lat="44.2961" lon="3.22584">
        <ele>947.1</ele>
        <time>2021-06-01T10:47:57.261Z</time>
      </trkpt>
      <trkpt lat="44.29383" lon="3.22543">
        <ele>939.5</ele>
        <time>2021-06-01T10:48:18.948Z</time>
      </trkpt>
      <trkpt lat="44.29372" lon="3.22293">
        <ele>922.7</ele>
        <time>2021-06-01T10:48:32.787Z</time>
      </trkpt>
      <trkpt lat="44.29023" lon="3.21633">
        <ele>879</ele>
        <time>2021-06-01T10:49:18.127Z</time>
      </trkpt>
      <trkpt lat="44.28841" lon="3.21625">
        <ele>835.5</ele>
        <time>2021-06-01T10:49:32.183Z</time>
      </trkpt>
      <trkpt lat="44.28787" lon="3.21686">
        <ele>822.9</ele>
        <time>2021-06-01T10:49:37.544Z</time>
      </trkpt>
      <trkpt lat="44.28696" lon="3.21663">
        <ele>803.1</ele>
        <time>2021-06-01T10:49:44.682Z</time>
      </trkpt>
      <trkpt lat="44.28472" lon="3.21344">
        <ele>817.9</ele>
        <time>2021-06-01T10:51:00.366Z</time>
      </trkpt>
      <trkpt lat="44.28331" lon="3.2177">
        <ele>782.7</ele>
        <time>2021-06-01T10:51:26.302Z</time>
      </trkpt>
      <trkpt lat="44.28262" lon="3.21997">
        <ele>752.6</ele>
        <time>2021-06-01T10:51:39.931Z</time>
      </trkpt>
      <trkpt lat="44.27945" lon="3.22201">
        <ele>680.4</ele>
        <time>2021-06-01T10:52:06.873Z</time>
      </trkpt>
      <trkpt lat="44.2794" lon="3.22241">
        <ele>664.3</ele>
        <time>2021-06-01T10:52:09.117Z</time>
      </trkpt>
      <trkpt lat="44.2799" lon="3.22328">
        <ele>637.4</ele>
        <time>2021-06-01T10:52:15.283Z</time>
      </trkpt>
      <trkpt lat="44.27883" lon="3.22405">
        <ele>594.1</ele>
        <time>2021-06-01T10:52:24.575Z</time>
      </trkpt>
      <trkpt lat="44.2808" lon="3.22757">
        <ele>481.7</ele>
        <time>2021-06-01T10:52:49.267Z</time>
      </trkpt>
      <trkpt lat="44.27915" lon="3.2278">
        <ele>446.2</ele>
        <time>2021-06-01T10:53:02.067Z</time>
      </trkpt>
      <trkpt lat="44.2774" lon="3.22728">
        <ele>418.7</ele>
        <time>2021-06-01T10:53:15.878Z</time>
      </trkpt>
      <trkpt lat="44.27767" lon="3.23003">
        <ele>441.4</ele>
        <time>2021-06-01T10:54:38.574Z</time>
      </trkpt>
      <trkpt lat="44.2771" lon="3.22958">
        <ele>444.1</ele>
        <time>2021-06-01T10:54:52.839Z</time>
      </trkpt>
      <trkpt lat="44.27577" lon="3.22961">
        <ele>462.9</ele>
        <time>2021-06-01T10:56:03.961Z</time>
      </trkpt>
      <trkpt lat="44.27413" lon="3.23017">
        <ele>494.2</ele>
        <time>2021-06-01T10:57:34.232Z</time>
      </trkpt>
      <trkpt lat="44.27389" lon="3.23193">
        <ele>564.1</ele>
        <time>2021-06-01T10:58:42.822Z</time>
      </trkpt>
      <trkpt lat="44.27275" lon="3.2324">
        <ele>613.4</ele>
        <time>2021-06-01T10:59:46.376Z</time>
      </trkpt>
      <trkpt lat="44.27409" lon="3.23492">
        <ele>699.5</ele>
        <time>2021-06-01T11:01:46.547Z</time>
      </trkpt>
      <trkpt lat="44.27189" lon="3.23403">
        <ele>724.7</ele>
        <time>2021-06-01T11:03:18.050Z</time>
      </trkpt>
      <trkpt lat="44.27322" lon="3.23593">
        <ele>774</ele>
        <time>2021-06-01T11:04:59.777Z</time>
      </trkpt>
      <trkpt lat="44.2721" lon="3.23547">
        <ele>785</ele>
        <time>2021-06-01T11:05:39.936Z</time>
      </trkpt>
      <trkpt lat="44.27355" lon="3.23692">
        <ele>814.4</ele>
        <time>2021-06-01T11:07:15.290Z</time>
      </trkpt>
      <trkpt lat="44.27346" lon="3.23919">
        <ele>859.6</ele>
        <time>2021-06-01T11:08:42.328Z</time>
      </trkpt>
      <trkpt lat="44.27145" lon="3.23703">
        <ele>858.9</ele>
        <time>2021-06-01T11:09:16.255Z</time>
      </trkpt>
      <trkpt lat="44.26979" lon="3.23726">
        <ele>872.1</ele>
        <time>2021-06-01T11:10:05.746Z</time>
      </trkpt>
      <trkpt lat="44.26855" lon="3.23804">
        <ele>886.5</ele>
        <time>2021-06-01T11:10:57.753Z</time>
      </trkpt>
      <trkpt lat="44.26841" lon="3.23946">
        <ele>888.7</ele>
        <time>2021-06-01T11:11:15.656Z</time>
      </trkpt>
      <trkpt lat="44.26764" lon="3.24172">
        <ele>900.2</ele>
        <time>2021-06-01T11:12:03.541Z</time>
      </trkpt>
      <trkpt lat="44.26676" lon="3.24442">
        <ele>909.4</ele>
      </trkpt>
      <trkpt lat="44.26613" lon="3.24662">
        <ele>924</ele>
        <time>2021-06-01T11:12:55.548Z</time>
      </trkpt>
      <trkpt lat="44.26688" lon="3.24868">
        <ele>937.7</ele>
      </trkpt>
      <trkpt lat="44.26802" lon="3.25048">
        <ele>945.1</ele>
      </trkpt>
      <trkpt lat="44.26798" lon="3.25251">
        <ele>948.2</ele>
        <time>2021-06-01T11:13:15.148Z</time>
      </trkpt>
      <trkpt lat="44.26647" lon="3.25382">
        <ele>960.2</ele>
        <time>2021-06-01T11:13:37.879Z</time>
      </trkpt>
      <trkpt lat="44.26529" lon="3.25531">
        <ele>966.7</ele>
      </trkpt>
      <trkpt lat="44.26362" lon="3.25736">
        <ele>991.9</ele>
      </trkpt>
      <trkpt lat="44.25965" lon="3.25905">
        <ele>1006.2</ele>
      </trkpt>
      <trkpt lat="44.25777" lon="3.25934">
        <ele>1002.2</ele>
        <time>2021-06-01T11:14:23.180Z</time>
      </trkpt>
      <trkpt lat="44.25617" lon="3.26001">
        <ele>1003.4</ele>
        <time>2021-06-01T11:14:42.745Z</time>
      </trkpt>
      <trkpt lat="44.25531" lon="3.26021">
        <ele>1007.8</ele>
        <time>2021-06-01T11:15:02.007Z</time>
      </trkpt>
      <trkpt lat="44.25436" lon="3.26032">
        <ele>1008.9</ele>
      </trkpt>
      <trkpt lat="44.25366" lon="3.26074">
        <ele>1007.8</ele>
        <time>2021-06-01T11:15:50.350Z</time>
      </trkpt>
      <trkpt lat="44.25295" lon="3.26074">
        <ele>1003.9</ele>
      </trkpt>
      <trkpt lat="44.25252" lon="3.26129">
        <ele>1003.7</ele>
      </trkpt>
      <trkpt lat="44.2521" lon="3.26326">
        <ele>1001.6</ele>
      </trkpt>
      <trkpt lat="44.25149" lon="3.26383">
        <ele>1002.8</ele>
        <time>2021-06-01T11:16:09.848Z</time>
      </trkpt>
      <trkpt lat="44.25122" lon="3.26383">
        <ele>1002.4</ele>
      </trkpt>
      <trkpt lat="44.25095" lon="3.26396">
        <ele>1002.8</ele>
      </trkpt>
      <trkpt lat="44.25069" lon="3.26397">
        <ele>1002.7</ele>
      </trkpt>
      <trkpt lat="44.25052" lon="3.26392">
        <ele>1002.1</ele>
      </trkpt>
      <trkpt lat="44.25033" lon="3.26403">
        <ele>1002.6</ele>
      </trkpt>
      <trkpt lat="44.25001" lon="3.26414">
        <ele>1002.8</ele>
      </trkpt>
      <trkpt lat="44.24964" lon="3.26426">
        <ele>1002.8</ele>
        <time>2021-06-01T11:16:31.778Z</time>
      </trkpt>
      <trkpt lat="44.24907" lon="3.26464">
        <ele>1004.7</ele>
      </trkpt>
      <trkpt lat="44.24842" lon="3.2646">
        <ele>1007.3</ele>
      </trkpt>
      <trkpt lat="44.24755" lon="3.26459">
        <ele>1008.9</ele>
        <time>2021-06-01T11:16:56.967Z</time>
      </trkpt>
      <trkpt lat="44.24754" lon="3.26463">
        <ele>1009.1</ele>
      </trkpt>
      <trkpt lat="44.24593" lon="3.2654">
        <ele>1004.4</ele>
        <time>2021-06-01T11:17:10.619Z</time>
      </trkpt>
      <trkpt lat="44.24514" lon="3.26561">
        <ele>1006.4</ele>
      </trkpt>
      <trkpt lat="44.24471" lon="3.26585">
        <ele>1007.6</ele>
      </trkpt>
      <trkpt lat="44.24445" lon="3.265">
        <ele>1010.9</ele>
      </trkpt>
      <trkpt lat="44.24392" lon="3.26425">
        <ele>1009.2</ele>
        <time>2021-06-01T11:17:25.975Z</time>
      </trkpt>
    </trkseg>
  </trk>
</gpx>